Regional Weather Roundup
Issued by NWS

Home | Current Version | Previous Version | Text Only | Print | Product List | Glossary On
Versions: 1 2 3 4 5 6 7 8 9 10 11 12 13 14 15 16 17 18 19 20 21 22 23 24 25 26 27 28 29 30 31 32 33 34 35 36 37 38 39 40 41 42 43 44 45 46 47 48 49 50
881
ASUS44 KEWX 301711
RWRTX
SOUTH TEXAS REGIONAL WEATHER ROUNDUP
NATIONAL WEATHER SERVICE AUSTIN/SAN ANTONIO TX
1200 PM CDT MON MAY 30 2016

NOTE: "FAIR" INDICATED FEW OR NO CLOUDS BELOW 12,000 FEET WITH NO
SIGNIFICANT WEATHER AND/OR OBSTRUCTIONS TO VISIBILITY.

* - THESE STATIONS ARE NOT NWS OR FAA STATIONS...AND ARE NOT SUBJECT
    TO NWS AND FAA QUALITY CONTROL.

TXZ171-172-183>190-301800-
TEXAS HILL COUNTRY AND EDWARDS PLATEAU

CITY           SKY/WX    TMP DP  RH WIND       PRES   REMARKS
JUNCTION       SUNNY     77  62  59 SW5       30.05F
*LLANO         SUNNY     77  64  65 CALM      30.06S
BURNET         SUNNY     75  62  64 S8        30.05S
*HORSESHOE BAY SUNNY     77  64  65 S5        30.02F
*KERRVILLE     CLOUDY    74  66  76 S6        30.06R
*FREDERICKSBRG SUNNY     74  62  65 SE3       30.05S
*ROCKSPRINGS   MOSUNNY   77  64  65 SE10      30.10F
*BOERNE STAGE  SUNNY     73  63  68 CALM      30.06S
*CASTROVILLE   SUNNY     77  63  62 E3        30.05S
HONDO          CLOUDY    75  64  68 E5        30.06R
*UVALDE        CLOUDY    74  65  71 E6        30.05S
DEL RIO        PTSUNNY   78  69  73 SE12      30.01F
LAUGHLIN AFB   PTSUNNY   79  67  68 SE14      30.01F
CARRIZO SPRGS  MOSUNNY   79  63  57 SE8       30.02F
*EAGLE PASS    MOSUNNY   81  66  61 SE9G15    30.03S
$$

TXZ173-191>194-202-209-217>225-228-301800-
CENTRAL AND SOUTH CENTRAL TEXAS

CITY           SKY/WX    TMP DP  RH WIND       PRES   REMARKS
GEORGETOWN     SUNNY     81  64  57 W6        30.00R
AUSTIN/BERGSTM MOSUNNY   83  61  47 SE10      29.97R
AUSTIN/MABRY   MOSUNNY   81  63  54 VRB3      29.99R
*AUSTIN/EXEC   MOSUNNY   82  59  44 S6        29.98R
*LAGO VISTA    MOSUNNY   78  63  59 SE3       30.02F
SAN MARCOS     SUNNY     81  63  54 E14G23    29.96F
NEW BRAUNFELS  SUNNY     83  62  49 SE15      29.96F
RANDOLPH AFB   MOSUNNY   81  64  55 VRB3      30.00R
PT SAN ANTONIO MOSUNNY   77  66  70 VRB2      30.01R
SAN ANTONIO    MOSUNNY   76  63  64 CALM      30.03R
STINSON FIELD  PTSUNNY   80  64  58 VRB3      30.00R
*PLEASANTON    PTSUNNY   78  64  62 SE6       30.00F
*LA GRANGE       N/A     76  71  85 S9        29.94F
*GIDDINGS      CLOUDY    74  68  79 S5        29.99S
*GONZALES      CLOUDY    79  64  60 E9        29.97R
$$

TXZ163>164-176>182-195>201-210>213-226-227-235-301800-
SOUTHEAST TEXAS

CITY           SKY/WX    TMP DP  RH WIND       PRES   REMARKS
COLLEGE STN    CLOUDY    77  70  79 SW12      29.96F
*BRYAN         CLOUDY    77  70  78 NW13G25   30.00R
*CALDWELL      CLOUDY    75  68  78 S3        30.00R
*CROCKETT      CLOUDY    79  72  78 E3        30.02F
*BRENHAM       CLOUDY    77  73  90 S8        29.96F
HUNTSVILLE     CLOUDY    79  69  71 S15G25    29.93F
CONROE         CLOUDY    79  72  79 S14       30.00F
HOUSTON BUSH   CLOUDY    79  70  74 S8        30.01F
HOUSTON HOBBY  CLOUDY    81  71  71 S6        30.02F
*HOUSTON SW AP CLOUDY    78  72  82 SE5       30.03F
PEARLAND       CLOUDY    83  70  64 S7        30.05F
HOUSTON HOOKS  CLOUDY    79  73  82 W3        30.01F
ELLINGTON FLD  PTSUNNY   88  73  62 S7        30.04F HX  96
SUGAR LAND     LGT RAIN  78  71  79 S12       30.00F
*HOUSTON EXEC  CLOUDY    75  75 100 SW9       30.03
*CLEVELAND MUN CLOUDY    80  74  80 S8        30.02F
*WHARTON       LGT RAIN  76  74  94 S7        30.04F
*COLUMBUS      LGT RAIN  73  73 100 SE9       29.97F
*EAGLE LAKE    LGT RAIN  74  74  99 SE7       29.99F
$$

TXZ214>216-236>238-301800-
THE UPPER TEXAS COAST

CITY           SKY/WX    TMP DP  RH WIND       PRES   REMARKS
*ORANGE        MOSUNNY   85  67  54 S7        30.06F
PORT ARTHUR    MOSUNNY   86  71  60 SW7       30.04F HX  91
GALVESTON      MOSUNNY   80  75  84 S5        30.07F
ANGLETON       CLOUDY    81  72  74 CALM      30.05F
*BAY CITY      CLOUDY    78  74  87 CALM      30.06F
PALACIOS       LGT RAIN  78  74  87 SE5       30.08R
$$

TXZ229>234-239>247-301800-
TEXAS COASTAL BEND AND RIO GRANDE PLAINS

CITY           SKY/WX    TMP DP  RH WIND       PRES   REMARKS
VICTORIA       CLOUDY    73  70  90 NE5       30.05F
*BEEVILLE      CLOUDY    78  73  83 NE17G28   30.01F
ROCKPORT       LGT RAIN  74  70  87 E14       30.04F
*PORT ARANSAS  CLOUDY    73  72  95 NE8       30.06R THUNDER
*PORT LAVACA   LGT RAIN  70  68  92 E6        30.06F
*INGLESIDE     CLOUDY    52  50  93 E6        30.05R
CORPUS CHRISTI CLOUDY    80  70  71 N9        30.04F
CORPUS NAS     CLOUDY    77  75  93 E12       30.04R
*ROBSTOWN      CLOUDY    77  69  78 N10G17    30.04F
ALICE          CLOUDY    73  64  73 NE12G22   30.03F
KINGSVILLE NAS CLOUDY    78  70  76 N14G22    30.03F
COTULLA        SUNNY     79  63  57 SE13      30.02F
*FAITH RANCH     N/A    N/A N/A N/A MISG        N/A
LAREDO         CLOUDY    78  64  61 NE15      30.03F
$$

TXZ248>255-301800-
DEEP SOUTH TEXAS

CITY           SKY/WX    TMP DP  RH WIND       PRES   REMARKS
BROWNSVILLE    CLOUDY    86  74  67 SE15      29.98F HX  94
PORT ISABEL    MOSUNNY   89  77  67 SE15      29.98F HX 101
*SOUTH PADRE     N/A     84  77  79 E10       30.00S HX  94
HARLINGEN      CLOUDY    89  73  59 E7        29.98F HX  97
*HEBBRONVILLE  CLOUDY    72  63  72 NE9       30.06F
MCALLEN        PTSUNNY   88  74  63 SE7       29.99F HX  96
*WESLACO       PTSUNNY   89  71  55 E6        29.98S HX  95
FALFURRIAS     CLOUDY    72  65  80 NE13G22   30.03S
EDINBURG       PTSUNNY   92  69  48 E5        29.99F HX  97
*ZAPATA        MOSUNNY   86  71  62 E6        30.00F HX  91
$$

TXZ213>215-236>238-242>244-246-247-251-254-255-301800-
CMAN STATIONS

STATION/POSITION TIME  TEMP    WIND        PRES    WAVE
                       AIR SEA DIR/SP/G            HT/PER
                 (UTC) (F)     (DEG/KT/KT) (MB)    (FT/S)
SABINE PASS      1600   83 82   CALM  /  2 1019.3
SEA RIM ST PARK  1700   82     200/  9/ 11 1018.0
NORTH JETTY/GLS  1600   82 82                N/A
EAGLE POINT      1600   80 76   10/  3/  6 1018.4
MORGANS POINT    1600   79 78  340/  4/  7 1018.3
MISSION/ARANSAS  1600   72                 1019.0
PORT O`CONNOR    1600           90/  9/ 10   N/A
PORT ARANSAS     1700   74 82   40/ 12/ 13 1018.1
MALAQUITE BEACH  1600   81 83  150/  6/  8 1017.1
BAFFIN BAY       1600   83 83   80/  2/  3 1017.1
PORT ISABEL      1600   84 81  180/  3/  8 1015.8
$$

GMZ080-GMZ150>470-301800-
OFFSHORE BUOY REPORTS

STATION/POSITION TIME  TEMP    WIND        PRES    WAVE
                       AIR SEA DIR/SP/G            HT/PER
                 (UTC) (F)     (DEG/KT/KT) (MB)    (FT/S)
20 E GALVESTON   1650   80 83  290/  4/  8 1018.0    2/ 5
90 E PT ARANSAS  1650   81 82  350/  4/  6 1018.3    2/ 6
35 NE PT MANSFLD 1650   81 82  100/  8/  8 1016.7    3/ 6
200 E PT ISABEL  1650                        N/A     2/ 5
$$




USA.gov is the U.S. government's official web portal to all federal, state and local government web resources and services.